Regional Weather Roundup
Issued by NWS Bismarck, ND

Home | Current Version | Previous Version | Text Only | Print | Product List | Glossary On
Versions: 1 2 3 4 5 6 7 8 9 10 11 12 13 14 15 16 17 18 19 20 21 22 23 24 25 26 27 28 29 30 31 32 33 34 35 36 37 38 39 40 41 42 43 44 45 46 47 48 49 50
000
ASUS43 KBIS 220420
RWRBIS

NWR BROADCAST TEXT
NATIONAL WEATHER SERVICE BISMARCK ND
1100 PM CDT TUE OCT 21 2014

NOTE: "FAIR" INDICATES FEW OR NO CLOUDS BELOW 12,000 FEET WITH NO
SIGNIFICANT WEATHER AND/OR OBSTRUCTIONS TO VISIBILITY.


CITY           SKY/WX    TMP DP  RH WIND       PRES   REMARKS
WILLISTON      PTCLDY    46  40  79 CALM      29.60R
MINOT          CLEAR     67  44  43 S20G31    29.58F
MINOT AFB      CLEAR     56  48  76 S10       29.58F
BISMARCK       CLEAR     66  38  35 SE18      29.67F
DICKINSON      PTCLDY    57  43  59 W5        29.63R
GARRISON         N/A     65  48  54 S13       29.61S
HETTINGER ARPT PTCLDY    63  44  50 S9        29.67S
JAMESTOWN      PTCLDY    59  44  57 SE16      29.79F
BEACH            N/A     61  39  44 W12       29.69S
CARRINGTON     FAIR      59  46  63 S26G33    29.75F HAZE
CROSBY         FAIR      45  41  87 SW6       29.59R
HARVEY         FAIR      64  41  42 S22G33    29.68F
HAZEN          FAIR      66  48  52 S17G25    29.62R
LINTON         FAIR      64  39  39 SE20G26   29.72F
MANDAN         FAIR      66  37  34 S21G26    29.68F
OAKES            N/A     63  46  55 SE22G28   29.84F
RUGBY          FAIR      63  45  51 S21G29    29.65F
STANLEY        FAIR      55  48  76 CALM      29.59F
TIOGA          FAIR      41  41 100 E5        29.62S
$$

CITY           SKY/WX    TMP DP  RH WIND       PRES   REMARKS
GRAND FORKS    CLEAR     53  41  63 S21G32    29.86S
GRAND FORKS AF CLEAR     55  42  61 S20G26    29.85S
DEVILS LAKE    CLEAR     59  43  55 S25G33    29.73F
FARGO          CLEAR     57  41  55 SE25G40   29.91S
CANDO          FAIR      59  45  58 S21G29    29.72S
CAVALIER       FAIR      55  41  58 S20G28    29.81S
GRAFTON        FAIR      54  41  62 S22G30    29.84S
GWINNER        CLEAR     55  41  58 SE14      29.89S
LANGDON        FAIR      55  41  58 S25G32    29.77S
ROLLA          FAIR      57  43  58 S17G28    29.70F
WALHALLA         N/A     55  41  58 S21G29    29.78S
$$

CITY           SKY/WX    TMP DP  RH WIND       PRES   REMARKS
ABERDEEN       CLEAR     64  44  48 S23G29    29.85S
MOBRIDGE       PTCLDY    65  44  46 SE15      29.72R
BUFFALO          N/A     58  40  51 SW10      29.62R
RAPID CITY     MOCLDY    60  43  53 S7        29.77R
GLASGOW        PTCLDY    54  45  71 W14       29.69R
SIDNEY         MOCLDY    55  45  67 W7        29.65R
WOLF POINT     CLOUDY    57  47  69 W16       29.65R
GLENDIVE       CLOUDY    59  48  67 W16       29.70S
MILES CITY     LGT RAIN  59  45  59 W21G28    29.78R
BAKER          MOCLDY    58  41  53 W9        29.71R
$$

CITY           SKY/WX    TMP DP  RH WIND       PRES   REMARKS
BILLINGS       MOCLDY    50  32  50 W17G33    29.90R
GREAT FALLS    MOCLDY    44  38  79 SW14      29.87R
REGINA         MOCLDY    52  43  71 SE9       29.56F
ESTEVAN        PTCLDY    46  41  81 SE3       29.57F
$$




USA.gov is the U.S. government's official web portal to all federal, state and local government web resources and services.